ATLAS CENTAUR 2 R/B, 694

Orbit data source: Space-Track

ATLAS CENTAUR 2 R/B, 694 is space debris in LEO originally from a launch on Wed, 27 Nov 1963 UTC via an ATLAS CENTAUR launch vehicle from the Air Force Eastern Test Range (AFETR). Debris objects in space refer to the collection of defunct objects orbiting the Earth. Examples of debris include non-operational satellites, rocket bodies, and fragments generated from explosions, collisions, or faulty payload assembly.

Loading next visibility...
Identifier
694, 1963-047A
Orbit
LEO
Country
Flag of USUS
Related business
Manufacturer
GD/Convair
Mission
Civil Technology
Bus & Motor
AC R&D, Unknown motor
Mass
4,300 kg wet, 900 kg dry
Launch date (UTC)
1963-11-27 (62 years ago)
Launch vehicle
ATLAS CENTAUR
Launch site
Air Force Eastern Test Range (AFETR)
Object type
Payload
Rocket body
Debris
Shape & HBR
Cyl + 2 Nozzle, 4.3 m
Radar Cross Section
24.688 m², Large (>1 m²)

Expand to show TLE details & history
Last TLE update: 12 hours ago

TLE from 12 hours ago
0 ATLAS CENTAUR 2 R/B
1 00694U 63047A   25242.81538336  .00001536  00000-0  17505-3 0  9997
2 00694  30.3545 181.5420 0552016 199.3955 158.4845 14.10999705104636
Epoch: 2025-08-30T19:34Z
TLE epoch observation values (Epoch: 2025-08-30T19:34:09.122Z)
Latitude
0.00002°
Longitude
-91.24025°
Altitude
1,228.616 km
Speed
7.053 km/s
True Right ascension
12h 06m 10s
True Declination
0° 00' 00"
Sunlit
Object was in daylight at epoch
Visualization orbit readout
Latitude
Unknown
Longitude
Unknown
Altitude
Unknown
Speed
Unknown
Apparent Right ascension
Unknown
Apparent Declination
Unknown
Sunlit
N/A
Visualization observer readout
Local Sidereal Time
23:14:29
Azimuth
Unknown
Elevation
Unknown
Doppler factor
Unknown
Orbital elements
Apogee altitude
1,259.274 km
Perigee altitude
460.19 km
Semi-major axis
7,237.869 km
Eccentricity
0.0552
Inclination
30.3545°
RAAN
181.542°
Arg. of periapsis
199.3955°
True anomaly
160.66368°
Mean anomaly
158.4845°
Eccentric anomaly
159.58761°
Mean motion
3.52474 °/min
Orbital period
102.14 mins
BSTAR
0.00017505
Loading maneuver chart data...
Computing Atmospheric mass density...

Documentation

Showing up to 5 results
|